Regional Weather Roundup
Issued by NWS State College, PA

Home | Current Version | Previous Version | Text Only | Print | Product List | Glossary Off
Versions: 1 2 3 4 5 6 7 8 9 10 11 12 13 14 15 16 17 18 19 20 21 22 23 24 25 26 27 28 29 30 31 32 33 34 35 36 37 38 39 40 41 42 43 44 45 46 47 48 49 50

000
ASUS41 KCTP 191410
RWRCTP

REGIONAL WEATHER ROUNDUP
NATIONAL WEATHER SERVICE STATE COLLEGE PA
1000 AM EDT SAT APR 19 2014

Note: "fair" indicates few or no clouds below 12,000 feet with no
significant weather and/or obstructions to visibility.

* = STATION THAT DOES NOT REPORT PRECIPITATION /E.G. RAIN...SNOW...ETC/
    THUNDER OR FOG.

PAZ002>004-007>009-013>016-020>023-029>032-191500-
WESTERN PENNSYLVANIA

CITY           SKY/WX    TMP DP  RH WIND       PRES   REMARKS
ERIE           SUNNY     41  30  65 NE10      30.44R
MEADVILLE      SUNNY     43  30  60 NE7       30.39R
FRANKLIN*      SUNNY     43  28  56 N5        30.40R
NEW CASTLE     FAIR      47  35  63 N3        30.41R
BEAVER COUNTY  SUNNY     50  36  57 N7        30.38R
BUTLER*        SUNNY     50  30  46 N6        30.39S
PITTSBURGH INT PTSUNNY   51  37  58 N8        30.36R
PITTSBURGH     MOSUNNY   55  36  48 N6        30.35R
INDIANA*       MOSUNNY   52  32  46 NE7       30.36R
LATROBE        MOSUNNY   54  37  54 NE10      30.36F
WASHINGTON CO* SUNNY     54  36  50 NE10      30.37R
$$

PAZ004>006-010>012-017>019-024>028-033>037-041-042-045-046-049>053-191500-
CENTRAL PENNSYLVANIA

CITY           SKY/WX    TMP DP  RH WIND       PRES   REMARKS
BRADFORD       SUNNY     42  24  49 N10       30.35R
DUBOIS         MOSUNNY   48  30  49 N7        30.34R
CLEARFIELD     MOSUNNY   50  31  48 NW7       30.35R
JOHNSTOWN      SUNNY     49  35  58 VRB5      30.32R
ALTOONA        SUNNY     54  35  48 N13       30.33R
STATE COLLEGE  SUNNY     54  27  35 NE6       30.34R
WILLIAMSPORT   MOSUNNY   51  28  41 VRB6      30.35R
SELINSGROVE    SUNNY     54  34  46 N12       30.35R
FT INDIANTOWN  NOT AVBL
CAPITAL CITY   SUNNY     55  34  45 NW8       30.32R
HARRISBURG     PTSUNNY   58  32  37 N12       30.31R
YORK           SUNNY     57  35  43 N8        30.31R
$$

PAZ038>040-043-044-047-048-054-055-060>062-067>071-191500-
EASTERN PENNSYLVANIA

CITY           SKY/WX    TMP DP  RH WIND       PRES   REMARKS
SCRANTON       MOSUNNY   49  30  48 NW13      30.32S
MOUNT POCONO   SUNNY     48  25  40 NW12      30.27R
ALLENTOWN      SUNNY     55  36  48 N7        30.30R
QUAKERTOWN*    SUNNY     54  36  50 N10G17    30.30R
READING        SUNNY     55  37  50 N8        30.30R
LANCASTER      SUNNY     56  35  45 N13       30.30R
COATESVILLE    MOSUNNY   55  30  38 N10G16    30.29R
POTTSTOWN      SUNNY     55  34  45 N13       30.31R
BLUE BELL      MOSUNNY   57  34  41 N3        30.29R
DOYLESTOWN     MOSUNNY   54  36  50 NW8G17    30.29R
WILLOW GROVE   NOT AVBL
NORTH PHILA    PTSUNNY   57  35  43 N10       30.31R
PHILADELPHIA   PTSUNNY   56  36  47 N8        30.31R
$$



USA.gov is the U.S. government's official web portal to all federal, state and local government web resources and services.